Theta_e
327 329 329 328 328 325 325 324 324 317 322 326 330 331 328 329 326 319 322 315 313 314 316 318 318 320 320
324 326 328 329 329 326 325 324 324 325 322 321 325 327 327 328 329 318 318 316 314 312 310 313 318 319 320
321 323 326 328 328 325 324 323 322 323 328 327 324 325 327 328 329 320 319 317 314 311 309 314 317 317 316
315 321 323 326 326 325 323 324 325 319 321 327 327 327 327 329 329 324 321 320 316 314 312 313 316 317 317
314 316 320 322 325 325 326 326 326 325 319 325 326 327 329 330 326 322 323 318 317 315 315 314 313 314 313
314 316 317 318 322 323 325 326 325 326 320 324 325 325 329 330 329 327 323 320 318 317 315 314 315 315 314
313 315 316 317 317 319 322 323 322 322 321 319 323 324 327 329 329 326 327 323 320 319 317 316 317 318 318
307 313 315 316 316 316 317 317 320 321 322 318 323 325 324 326 327 327 326 324 323 321 319 318 319 319 319
302 306 313 315 316 316 317 317 319 320 322 320 319 324 325 324 326 326 323 322 323 321 319 319 320 320 319
301 303 309 314 316 315 316 317 318 320 321 320 321 325 323 323 325 326 322 323 324 321 320 320 320 321 321
299 302 304 312 314 314 315 318 319 319 320 321 322 322 321 324 325 325 323 321 322 320 320 320 321 321 320
298 302 303 310 314 315 316 318 319 321 320 321 322 322 321 325 325 325 325 321 321 320 319 320 322 320 319
299 301 303 311 312 315 317 318 321 321 322 322 322 323 318 322 323 325 325 322 321 319 320 321 322 320 320
302 302 303 311 313 315 316 317 318 324 323 323 324 323 320 320 323 325 325 323 319 319 320 321 320 320 321
302 302 302 308 311 313 315 317 317 319 323 323 323 319 319 321 323 324 324 323 320 320 321 320 320 319 321
302 302 302 305 309 312 314 316 316 320 323 321 319 319 321 322 323 324 322 322 322 321 321 321 320 318 318
Wind_Speed
8 8 6 12 20 12 10 9 9 10 11 12 15 16 14 12 9 9 9 9 12 15 17 16 13 12 10
8 7 11 18 13 21 14 10 10 8 10 13 15 16 16 15 11 11 11 11 11 14 15 16 14 11 9
7 9 9 13 17 13 14 11 12 9 9 11 15 18 19 18 16 14 11 10 12 14 15 18 13 10 10
8 9 12 12 17 17 19 20 15 18 10 11 12 18 20 21 21 15 13 11 12 12 16 15 11 9 6
7 5 10 14 16 19 20 19 17 17 16 12 13 18 22 24 23 21 17 12 12 13 13 11 10 7 4
8 8 10 12 17 19 20 21 19 16 24 14 15 18 23 26 28 19 18 16 12 12 10 11 9 7 6
10 8 8 10 11 17 22 20 19 21 19 19 16 19 22 25 25 22 17 19 16 12 11 10 8 7 4
11 10 10 11 12 13 12 17 19 22 23 16 21 21 22 23 21 18 19 19 17 14 12 10 8 5 3
12 11 10 10 15 13 12 14 15 19 24 26 29 26 25 24 23 20 19 19 16 15 13 11 7 4 1
13 11 11 10 12 13 11 13 17 17 27 32 24 27 27 27 28 23 22 22 20 17 14 10 6 3 2
14 10 10 11 11 11 9 12 15 20 29 31 26 22 27 29 31 26 25 24 23 17 14 9 6 4 3
14 12 7 9 10 11 9 11 14 23 31 38 32 26 27 31 30 28 26 25 20 16 13 9 9 4 4
14 12 5 7 9 10 10 7 8 18 27 35 34 29 27 32 30 28 26 23 21 18 15 12 12 8 8
10 11 7 1 5 4 3 3 7 14 26 31 30 31 28 29 27 27 24 25 23 21 20 13 7 9 11
12 9 6 3 0 2 1 2 5 6 28 34 29 28 26 28 26 24 22 22 25 23 19 10 7 7 14
11 9 6 1 1 3 2 2 3 0 29 25 28 27 23 25 26 24 20 21 21 21 21 17 8 11 8
Wind_Direction
306 265 245 219 205 195 208 201 204 208 209 201 196 194 196 201 193 166 155 146 153 154 158 152 144 144 149
286 267 216 213 199 202 195 210 212 205 212 214 209 208 208 205 197 172 158 158 152 153 157 156 156 155 170
285 264 253 219 211 188 208 232 234 223 220 225 219 214 208 209 194 175 168 156 153 147 150 157 161 155 177
316 258 246 230 206 215 236 226 222 220 227 237 229 218 208 208 207 184 174 165 148 153 149 161 164 158 177
305 297 259 234 230 225 224 215 215 213 216 226 234 223 207 208 174 178 175 158 153 148 151 151 151 158 154
289 276 245 245 232 233 231 231 229 213 209 228 235 226 213 210 190 188 176 162 160 153 149 144 142 133 124
285 270 258 251 239 234 239 237 236 222 227 234 239 226 219 213 220 185 189 179 165 161 159 147 152 139 102
299 280 263 243 254 243 251 235 235 230 220 214 236 230 218 211 205 209 198 184 181 171 169 166 161 145 96
307 291 269 265 251 260 255 247 227 226 220 226 222 222 221 213 206 213 187 178 180 186 186 185 176 159 153
316 303 275 268 254 255 261 248 226 224 215 212 218 214 218 206 210 198 193 188 192 195 190 191 193 197 251
318 308 282 264 261 258 273 260 240 234 218 208 210 217 214 211 202 199 196 201 201 196 194 194 198 221 256
320 319 284 257 252 261 277 263 291 244 215 209 215 209 209 208 207 203 199 203 206 198 196 199 217 254 270
321 320 272 231 249 254 274 270 292 216 201 206 210 204 203 209 205 200 199 201 193 193 192 199 217 245 262
319 318 322 234 228 255 286 335 287 222 193 201 202 194 196 206 200 198 196 193 198 196 198 200 213 218 221
327 323 312 221 101 54 341 285 320 263 180 198 198 182 189 206 199 193 196 197 194 197 209 195 175 187 175
336 332 332 280 24 42 37 41 270 45 169 165 177 177 181 192 195 195 199 198 200 204 206 199 185 184 175